Klamath Falls, OR

11:08 AM PST on February 20, 2017 (GMT -0800)
Klamath Falls International

Weather History for KLMT - December, 2012

Change the Weather History Date:

Thursday, December 20, 2012

  Actual Average Record
Temperature  
Mean Temperature 30 °F 29 °F  
Max Temperature 33 °F 38 °F 52 °F (1969)
Min Temperature 27 °F 20 °F -9 °F (1990)
Degree Days  
Heating Degree Days 35 36  
Month to date heating degree days 680 706  
Since 1 July heating degree days 2150 2508  
Cooling Degree Days 0 0  
Month to date cooling degree days 0 0  
Year to date cooling degree days 177 169  
Moisture  
Dew Point 21 °F    
Average Humidity 69    
Maximum Humidity 78    
Minimum Humidity 53    
Precipitation  
Precipitation T in 0.05 in 0.58 in (1981)
Month to date precipitation 1.41 0.95  
Year to date precipitation 9.52 14.46  
Snow  
Snow 0.00 in - - ()
Snow Depth 1.00 in    
Sea Level Pressure  
Sea Level Pressure 29.87 in    
Wind  
Wind Speed 18 mph (South)    
Max Wind Speed 41 mph    
Max Gust Speed 54 mph    
Visibility 8 miles    
Events Snow    
T = Trace of Precipitation, MM = Missing Value Source: NWS Daily Summary

Daily Weather History Graph

Daily Weather History Graph

Search for Another Location

Airport or City:

Trip Planner

Search our weather history database for the weather conditions in past years. The results will help you decide how hot, cold, wet, or windy it might be!

Date:

Astronomy

Dec. 20, 2012 Rise Set
Actual Time 7:31 AM PST 4:37 PM PST
Civil Twilight 7:00 AM PST 5:09 PM PST
Nautical Twilight 6:24 AM PST 5:45 PM PST
Astronomical Twilight 5:50 AM PST 6:19 PM PST
Moon 12:03 PM PST 12:18 AM PST
Length of Visible Light 10h 09m
Length of Day
9h 05m
First Quarter, 56% of the Moon is Illuminated
Dec 20
First Quarter
Dec 28
Full
Jan 4
Last Quarter
Jan 11
New
Jan 18
First Quarter

Hourly Weather History & Observations

Time (PST) Temp. Windchill Dew Point Humidity Pressure Visibility Wind Dir Wind Speed Gust Speed Precip Events Conditions
12:53 AM 27.0 °F 11.6 °F 12.9 °F 56% 30.00 in 10.0 mi South 26.5 mph 36.8 mph N/A   Partly Cloudy
1:53 AM 28.0 °F 13.0 °F 14.0 °F 56% 29.99 in 10.0 mi South 26.5 mph 33.4 mph N/A   Clear
2:53 AM 27.0 °F 13.5 °F 14.0 °F 58% 29.98 in 10.0 mi South 19.6 mph 24.2 mph N/A   Partly Cloudy
4:53 AM 28.0 °F 16.5 °F 16.0 °F 61% 29.94 in 10.0 mi SSE 15.0 mph 33.4 mph N/A   Scattered Clouds
5:53 AM 28.0 °F 16.1 °F 17.1 °F 63% 29.93 in 10.0 mi South 16.1 mph - N/A   Partly Cloudy
6:00 AM 28.4 °F 16.6 °F 17.6 °F 64% 29.87 in 10.0 mi South 16.1 mph - N/A   Scattered Clouds
6:53 AM 28.9 °F 19.2 °F 18.0 °F 64% 29.92 in 10.0 mi SSE 11.5 mph 20.7 mph N/A   Mostly Cloudy
7:53 AM 28.0 °F 15.3 °F 17.1 °F 63% 29.89 in 10.0 mi SSE 18.4 mph 26.5 mph N/A   Mostly Cloudy
8:53 AM 28.9 °F 21.9 °F 19.0 °F 67% 29.89 in 10.0 mi WSW 6.9 mph - N/A   Mostly Cloudy
9:53 AM 30.9 °F 20.2 °F 21.9 °F 69% 29.86 in 10.0 mi SSW 15.0 mph 23.0 mph N/A   Overcast
10:53 AM 30.9 °F 15.3 °F 21.9 °F 69% 29.86 in 10.0 mi South 34.5 mph 54.1 mph 0.00 in Snow Light Snow
11:53 AM 32.0 °F 19.8 °F 21.0 °F 64% 29.88 in 10.0 mi SSW 20.7 mph - N/A   Overcast
12:53 PM 33.1 °F 21.5 °F 21.9 °F 64% 29.86 in 10.0 mi SW 19.6 mph 25.3 mph N/A   Overcast
1:10 PM 33.8 °F 21.6 °F 21.2 °F 60% 29.81 in 10.0 mi SW 23.0 mph 38.0 mph 0.00 in Snow Light Snow
1:53 PM 30.9 °F 22.2 °F 25.0 °F 79% 29.85 in 7.0 mi West 10.4 mph - 0.00 in Snow Light Snow
2:53 PM 32.0 °F 20.1 °F 23.0 °F 69% 29.85 in 7.0 mi SSW 19.6 mph 32.2 mph 0.00 in Snow Light Snow
3:53 PM 33.1 °F 19.8 °F 24.1 °F 70% 29.84 in 7.0 mi SW 26.5 mph 38.0 mph 0.00 in Snow Light Snow
4:53 PM 32.0 °F 22.1 °F 24.1 °F 73% 29.85 in 7.0 mi South 13.8 mph - 0.00 in Snow Light Snow
5:53 PM 30.9 °F 19.4 °F 23.0 °F 72% 29.86 in 5.0 mi South 17.3 mph - 0.00 in Snow Light Snow
6:53 PM 30.9 °F 20.7 °F 23.0 °F 72% 29.86 in 5.0 mi SSE 13.8 mph - 0.00 in Snow Light Snow
7:53 PM 30.9 °F 19.1 °F 23.0 °F 72% 29.86 in 5.0 mi South 18.4 mph 24.2 mph 0.00 in Snow Light Snow
8:53 PM 30.9 °F 18.7 °F 24.1 °F 76% 29.86 in 4.0 mi South 19.6 mph - 0.00 in Snow Light Snow
8:56 PM 30.2 °F 18.9 °F 24.8 °F 80% 29.81 in 1.5 mi South 16.1 mph - 0.00 in Snow Light Snow
9:32 PM 32.0 °F 22.1 °F 24.8 °F 75% 29.81 in 3.0 mi SSE 13.8 mph - 0.00 in Snow Light Snow
9:53 PM 32.0 °F 23.0 °F 25.0 °F 75% 29.85 in 3.0 mi South 11.5 mph - 0.00 in Snow Light Snow
10:07 PM 30.2 °F 19.8 °F 24.8 °F 80% 29.81 in 10.0 mi South 13.8 mph - 0.00 in   Overcast
10:53 PM 30.9 °F 19.4 °F 25.0 °F 79% 29.86 in 4.0 mi South 17.3 mph - 0.00 in Snow Light Snow
11:53 PM 32.0 °F 21.6 °F 26.1 °F 79% 29.83 in 10.0 mi South 15.0 mph 25.3 mph 0.00 in   Overcast